Weather History for Pasco, WA

Change the Weather History Date:

Tuesday, February 12, 2013

  Actual Average Record
Temperature  
Mean Temperature 41 °F 38 °F  
Max Temperature 56 °F 48 °F 63 °F (2011)
Min Temperature 26 °F 28 °F 17 °F (2002)
Degree Days  
Heating Degree Days 24 27  
Month to date heating degree days 316 330  
Since 1 July heating degree days 3227 3481  
Cooling Degree Days 0 0  
Month to date cooling degree days 0 0  
Year to date cooling degree days 0 0  
Moisture  
Dew Point 34 °F    
Average Humidity 75    
Maximum Humidity 100    
Minimum Humidity 50    
Precipitation  
Precipitation 0.00 in - 0.43 in (1958)
Month to date precipitation T  
Year to date precipitation 0.36  
Snow  
Snow 0.00 in - - ()
Snow Depth 0.00 in    
Sea Level Pressure  
Sea Level Pressure 30.30 in    
Wind  
Wind Speed 5 mph (SW)    
Max Wind Speed 23 mph    
Max Gust Speed 29 mph    
Visibility 10 miles    
Events      
T = Trace of Precipitation, MM = Missing Value Source: NWS Daily Summary

Daily Weather History Graph

Daily Weather History Graph

Search for Another Location

Airport:

Trip Planner

Search our weather history database for the weather conditions in past years. The results will help you decide how hot, cold, wet, or windy it might be!

Date:

Astronomy

Feb. 12, 2013 Rise Set
Actual Time 7:03 AM PST 5:18 PM PST
Civil Twilight 6:32 AM PST 5:49 PM PST
Nautical Twilight 5:57 AM PST 6:24 PM PST
Astronomical Twilight 5:22 AM PST 6:59 PM PST
Moon 7:51 AM PST (2/12) 8:38 PM PST (2/12)
Length of Visible Light 11h 16m
Length of Day
10h 14m
Waxing Crescent, 8% of the Moon is Illuminated
Feb 12
Waxing Crescent
Feb 17
First Quarter
Feb 25
Full
Mar 4
Last Quarter
Mar 11
New

Hourly Weather History & Observations

Time (PST) Temp. Windchill Dew Point Humidity Pressure Visibility Wind Dir Wind Speed Gust Speed Precip Events Conditions
12:53 AM 28.0 °F 24.2 °F 26.1 °F 92% 30.29 in 7.0 mi NNW 3.5 mph - N/A   Clear
1:53 AM 27.0 °F 23.0 °F 25.0 °F 92% 30.30 in 9.0 mi NNW 3.5 mph - N/A   Clear
2:53 AM 26.1 °F 21.9 °F 24.1 °F 92% 30.30 in 9.0 mi East 3.5 mph - N/A   Clear
3:53 AM 27.0 °F - 26.1 °F 96% 30.30 in 9.0 mi Calm Calm - N/A   Mostly Cloudy
4:53 AM 30.0 °F - 28.0 °F 92% 30.31 in 9.0 mi Calm Calm - N/A   Scattered Clouds
5:53 AM 30.9 °F - 28.9 °F 92% 30.31 in 9.0 mi Calm Calm - N/A   Scattered Clouds
6:53 AM 33.1 °F - 32.0 °F 96% 30.33 in 10.0 mi Calm Calm - N/A   Mostly Cloudy
7:53 AM 34.0 °F 31.0 °F 32.0 °F 92% 30.34 in 10.0 mi NW 3.5 mph - N/A   Overcast
8:53 AM 36.0 °F - 33.1 °F 89% 30.35 in 10.0 mi Calm Calm - N/A   Mostly Cloudy
9:53 AM 39.9 °F - 35.1 °F 83% 30.36 in 10.0 mi Calm Calm - N/A   Mostly Cloudy
10:53 AM 48.9 °F - 37.0 °F 64% 30.34 in 10.0 mi South 4.6 mph - N/A   Scattered Clouds
11:53 AM 53.1 °F - 36.0 °F 52% 30.34 in 10.0 mi SW 6.9 mph - N/A   Clear
12:53 PM 53.1 °F - 37.9 °F 57% 30.33 in 10.0 mi SW 10.4 mph - N/A   Overcast
1:53 PM 55.0 °F - 39.0 °F 55% 30.32 in 10.0 mi South 5.8 mph - N/A   Overcast
2:53 PM 54.0 °F - 39.9 °F 59% 30.31 in 10.0 mi SSW 10.4 mph - N/A   Overcast
3:53 PM 53.1 °F - 39.9 °F 61% 30.30 in 10.0 mi SSW 8.1 mph - N/A   Overcast
4:53 PM 53.1 °F - 39.0 °F 59% 30.28 in 10.0 mi SW 15.0 mph 20.7 mph N/A   Mostly Cloudy
5:53 PM 52.0 °F - 37.9 °F 59% 30.26 in 10.0 mi SW 18.4 mph 25.3 mph N/A   Scattered Clouds
6:53 PM 48.9 °F - 37.9 °F 66% 30.27 in 10.0 mi WSW 12.7 mph - N/A   Clear
7:53 PM 48.9 °F - 37.0 °F 64% 30.27 in 10.0 mi SW 13.8 mph - N/A   Mostly Cloudy
8:53 PM 48.9 °F - 36.0 °F 61% 30.28 in 10.0 mi WSW 8.1 mph 18.4 mph N/A   Mostly Cloudy
9:53 PM 48.9 °F - 37.9 °F 66% 30.27 in 10.0 mi SW 16.1 mph - N/A   Mostly Cloudy
10:53 PM 48.9 °F - 39.0 °F 69% 30.27 in 10.0 mi SW 20.7 mph 25.3 mph N/A   Overcast
11:53 PM 48.0 °F - 37.0 °F 66% 30.25 in 10.0 mi SW 15.0 mph 24.2 mph N/A   Clear